sat.trackr.live / text

‹ back to catalog

STARLINK-1805

NORAD 46705 · 2020-073AM

PAYLOAD ACTIVE UNKNOWN

§ Identity

Operator
Country
US
Launch date
2020-10-18
Launch site
AFETR
Launch vehicle
Mass (kg)
RCS (m²)

Purposes: comms

External: N2YO · Heavens-Above · Gunter

§ Orbital elements

Epoch: 2026-09-14T19:05:15.881280Z

Period
88.44 min
Inclination
53.0233°
Eccentricity
0.0008854
Mean motion
16.28220207 rev/d
Perigee alt
191.5 km
Apogee alt
203.1 km
Semi-major
6,575.5 km
B*
8.9629e-4
RAAN
22.8217°
Arg perigee
326.4610°
Mean anomaly
33.5870°
Rev number
32,688

§ Raw data

STARLINK-18051 46705U 20073AM  26257.79532270  .03590971  12068-4  89629-3 0  99932 46705  53.0233  22.8217 0008854 326.4610  33.5870 16.28220207326882

JSON: /api/v1/satellites/46705 · /tle

For live sub-satellite position, see the globe view (requires WebGL).

§ Visibility from observer

Set your observer location to see the next 7 days of passes ≥ 10°. The values pass through the URL so the page stays shareable.

No JS? Fill the form by hand. The geolocation button needs JavaScript.